Other Public Products
Issued by NWS Grand Forks, ND

Home | Current Version | Previous Version | Text Only | Print | Product List | Glossary Off
Versions: 1 2 3 4 5 6 7 8 9 10 11 12 13 14 15 16 17 18 19 20 21 22 23 24 25 26 27 28 29 30 31 32 33 34 35 36 37 38 39 40 41 42 43 44 45 46 47 48 49 50

000
FPUS83 KFGF 190910
OPUFGF
PRAIRIE TO PINES WEATHER ROUNDUP
NATIONAL WEATHER SERVICE EASTERN NORTH DAKOTA/GRAND FORKS ND
400 AM CDT SAT APR 19 2014

 **SATELLITE DATA USED TO AUGMENT SKY COVER AT AUTOMATED STATIONS**
 *****  WEATHER ACROSS EASTERN NORTH DAKOTA  *****

CITY           SKY/WX    TMP DP  RH WIND       PRES   REMARKS
GRAND FORKS    CLOUDY    44  32  62 SE14      29.73F
GRAND FORKS AF MOCLDY    43  33  66 S8        29.72F
GRAND CITY NWS   N/A     45 N/A N/A SE22        N/A
BUXTON         NOT AVBL
DEVILS LAKE    PTCLDY    39  30  70 SW5       29.68R
FARGO          CLOUDY    49  34  56 SE30G55   29.74R
WAHPETON ARPT  CLOUDY    46  34  61 SE29G37   29.80R
$$

 *****  WEATHER ACROSS CENTRAL AND WESTERN NORTH DAKOTA  *****

CITY           SKY/WX    TMP DP  RH WIND       PRES   REMARKS
JAMESTOWN      MOCLDY    51  42  71 SW14      29.69R
BISMARCK       CLOUDY    46  39  76 W18       29.77R
MINOT          PTCLDY    36  34  92 W8        29.68S FOG
MINOT AFB      MOCLDY    36  35  99 SW6       29.68R
GARRISON         N/A     37  35  92 W8        29.74R
WILLISTON      CLEAR     35  33  92 SW6       29.72S
DICKINSON      CLEAR     38  31  76 W14       29.77R
HETTINGER      PTCLDY    37  31  78 W13       29.82F
$$

 *****  OTHER OBSERVATIONS NORTHEAST NORTH DAKOTA  *****

CITY           SKY/WX    TMP DP  RH WIND       PRES   REMARKS
WALHALLA       FAIR      37  37 100 SE12      29.72F
LANGDON        FAIR      36  30  80 SE15      29.68F
CAVALIER       FAIR      37  32  81 SE10      29.72F
GRAFTON        FAIR      39  32  75 SE17      29.72F
CANDO          CLOUDY    34  32  93 S7        29.69R
FORT TOTTEN    NOT AVBL
ROLLA          CLOUDY    34  34 100 SW7       29.70R
RUGBY          PTSUNNY   36  32  87 CALM      29.69R
 ***** THE ABOVE OBSERVATIONS ARE NON NWS ARE NOT QUALITY
        CONTROLLED AND MAY MIS-REPORT RAIN FOR SNOW...
$$

 *****  OTHER OBSERVATIONS SOUTHEAST NORTH DAKOTA *****

CITY           SKY/WX    TMP DP  RH WIND       PRES   REMARKS
COOPERSTOWN    FAIR      43  39  87 S18       29.68F
VALLEY CITY    FAIR      45  39  81 S14G22    29.70R
OAKES          FAIR      55  43  62 S20G25    29.69R
GWINNER        SUNNY     46  37  71 SE16      29.72R
SHEYENNE NWR     N/A     47  35  63 S21       29.95S
BUFFALO        NOT AVBL
WYNDMERE       NOT AVBL
 ***** THE ABOVE OBSERVATIONS ARE NON NWS ARE NOT QUALITY
       CONTROLLED AND MAY MIS-REPORT RAIN FOR SNOW...
$$

  *****  WEATHER ACROSS NORTHERN MINNESOTA  *****

CITY           SKY/WX    TMP DP  RH WIND       PRES   REMARKS
FLAG ISLAND    LGT RAIN  34  30  86 SE17G24   29.93F WCI  23
WARROAD        CLOUDY    36  30  80 SE21G30   29.90F
ROSEAU         CLOUDY    34  30  86 SE22G31   29.86F WCI  22
HALLOCK        CLOUDY    39  30  70 SE24G30   29.75F
THF RVR FALLS  CLOUDY    39  28  65 SE20G25   29.81S
HALSTAD          N/A     50  34  53 S33         N/A
FOSSTON        CLOUDY    43  28  56 SE25G37   29.81R
BAUDETTE       LGT RAIN  34  29  82 SE24G33   29.94F WCI  21
WASKISH        MIX PCPN  34  30  86 E21G29    29.92F WCI  22
CROOKSTON      MOCLDY    46  34  61 S20       29.77S
$$
  *****  WEATHER ACROSS CENTRAL AND WEST MINNESOTA  *****

CITY           SKY/WX    TMP DP  RH WIND       PRES   REMARKS
BEMIDJI        LGT RAIN  36  28  73 SE22G32   29.88F
PARK RAPIDS    LGT RAIN  42  31  64 SE28G38   29.92F
WADENA         LGT RAIN  41  30  65 SE25G33   29.89F
DETROIT LAKES  LGT RAIN  41  34  75 S31G41    29.81F
MOORHEAD       NOT AVBL
FERGUS FALLS   CLOUDY    46  30  53 SE26      29.81S
ELBOW LAKE     PTSUNNY   48  35  59 SE25G39   29.84S
MORRIS MN      CLOUDY    45  36  70 SE33G41   29.83F
STAPLES        CLOUDY    43  28  56 SE16G24   29.96S
WHEATON        CLOUDY    52  39  62 SE28G35   29.81F
$$
  *****  WEATHER ELSEWHERE ACROSS MINNESOTA  *****

CITY           SKY/WX    TMP DP  RH WIND       PRES   REMARKS
DULUTH         CLOUDY    33  24  69 E17       30.20F WCI  22
INTRNTL FALLS  LGT SNOW  33  27  78 SE21G36   30.08F WCI  21
ELY            CLOUDY    34  25  69 SE15G23   30.22F WCI  24
CLOQUET        CLOUDY    34  25  69 E13       30.18F WCI  25
BRAINERD       LGT RAIN  47  25  42 SE22G30   30.01F
HIBBING        LGT RAIN  37  21  52 SE21G29   30.14F
ALEXANDRIA     LGT RAIN  42  33  70 SE26G36   29.93F
SAINT CLOUD    MOCLDY    43  27  53 SE9G22    30.06F
MINNEAPOLIS    MOCLDY    44  29  55 SE17      30.16R
$$

  *****  WEATHER ACROSS SOUTH DAKOTA  *****

CITY           SKY/WX    TMP DP  RH WIND       PRES   REMARKS
SIOUX FALLS    CLOUDY    56  40  55 S20G31    29.93R
BROOKINGS      NOT AVBL
WATERTOWN      CLOUDY    53  40  61 S22       29.82R
HURON          CLOUDY    58  42  55 S17G26    29.77R
SISSETON         N/A     46  38  73 S15       29.76F
ABERDEEN       MOCLDY    55  43  63 S20G32    29.71R
MITCHELL       CLOUDY    58  43  57 S17       29.81F
PIERRE         MOCLDY    49  38  65 NW21G31   29.82R
MOBRIDGE       PTCLDY    47  36  65 NW17      29.75S
RAPID CITY     CLOUDY    46  25  43 NW16      29.89R
$$

  *****  SOME WEATHER IN NEARBY STATES *****

CITY           SKY/WX    TMP DP  RH WIND       PRES   REMARKS
GLASGOW MT     CLOUDY    40  35  83 W23G33    29.75R
GREAT FALLS MT CLEAR     35  19  52 SW12      29.91R
CHEYENNE WY    CLOUDY    48  31  51 W9        29.97R
SCOTTSBLUFF NE CLOUDY    54  36  50 N9        29.87R
OMAHA NE       PTCLDY    54  40  59 S18       30.04F
DES MOINES IA  PTCLDY    51  33  50 SE8       30.15F
DAVENPORT IA   PTCLDY    37  29  72 E13       30.32F
CHICAGO IL     PTCLDY    38  26  62 E7        30.35F
EAU CLAIRE WI  PTCLDY    39  27  62 SE14G22   30.28S
LA CROSSE WI   PTCLDY    41  30  65 SE12      30.31R
$$

  *****  SOME NATIONAL WEATHER *****

CITY           SKY/WX    TMP DP  RH WIND       PRES   REMARKS
LA GUARDIA NY  MOCLDY    43  33  68 SW7       30.23S
RALEIGH NC     LGT RAIN  47  45  93 NE8       30.16F
ATLANTA GA     LGT RAIN  53  49  86 N14       30.06R
NEW ORLEANS LA PTCLDY    60  52  74 NE13G22   30.11S
OKLAHOMA CITY  MOCLDY    50  42  74 SE5       30.12F
ALBUQUERQUE NM CLOUDY    58  44  60 NE3       30.08F
SALT LAKE CITY MOCLDY    48  46  93 CALM      29.97S
LOS ANGELES CA MOCLDY    60  53  77 SE3       29.95S
BOISE ID       MOCLDY    46  25  43 SE8       29.96F
SEATTLE WA     PTCLDY    46  35  65 E3        29.86F
$$

*** WEATHER ACROSS MANITOBA...SASKATCHEWAN AND ONTARIO ***
                ***ONTARIO***

CITY           SKY/WX    TMP DP  RH WIND       PRES   REMARKS
GERALDTON      MOCLDY    18  12  79 S2        30.44R
THUNDER BAY    CLOUDY    27  25  93 E9        30.42S WCI  17
SIOUX LOOKOUT  MOCLDY    34  19  55 SE12G21   30.21F
TORONTO        CLEAR     32  27  80 NW6       30.35R
BIG TROUT LK   CLEAR     23   9  54 SE10G17   30.37F WCI  12
PICKLE LAKE    NOT AVBL
DRYDEN         LGT SNOW  32  28  86 SE26G32   30.15F WCI  18
KENORA         LGT SNOW  32  30  93 SE21G33   30.01F WCI  20
$$
                *** MANITOBA***

CITY           SKY/WX    TMP DP  RH WIND       PRES   REMARKS
BRANDON        LGT RAIN  34  32  93 E9        29.70F
DAUPHIN        LGT SNOW  34  32  93 SE16      29.72F WCI  23
ISLAND LAKE    CLOUDY    30  12  47 E8        30.13F WCI  23
PILOT MOUND      N/A     34  32  93 SE10        N/A
THE PAS        LGT SNOW  30  30 100 E16G22    29.86F VSB 1   WCI  19
THOMPSON       PTCLDY    27  10  50 E8        30.10F WCI  18
WINNIPEG       CLOUDY    36  32  87 SE25G32   29.79F
LYNN LAKE      CLEAR     21   3  45 E7        30.04F WCI  13
CHURCHILL      CLEAR      7   5  92 S10       30.33F WCI  -8
GILLAM         CLEAR     19  10  68 E6        30.25F WCI  11
$$
                ***SASKATCHEWAN***

CITY           SKY/WX    TMP DP  RH WIND       PRES   REMARKS
ESTEVAN        NOT AVBL
KINDERSLEY     FLURRIES  32  30  93 NW13      29.75R WCI  22
LLOYDMINSTER   LGT SNOW  30  30 100 NW2       29.78S VSB 1
PRINCE ALBERT  LGT SNOW  28  27  93 NE12      29.74F FOG     WCI  18
REGINA         CLOUDY    39  37  93 SW15      29.57S



USA.gov is the U.S. government's official web portal to all federal, state and local government web resources and services.